Wind_Speed
10 10 10 10 10 9 9 9 10 9 9 9 9 9 9 9 9 9 9 9 8 8 8 7 8 9 8 8 8 8 9 10 11 12 11 11 11 10 10 10 11 11 10 10 10 10 9 9 9 9 9 10 10 10 11 11 11 12 12 13 13 14 14 14 15 15 15 15 14 14 13 13 13 12 12 11 12 12 12 12 13 12 12 12 12
10 10 11 11 11 11 10 10 10 9 9 9 9 8 8 8 8 8 8 8 8 7 7 7 7 8 9 8 8 8 8 9 10 11 12 11 11 11 11 10 11 11 11 10 10 10 10 10 11 11 11 11 11 12 12 12 13 13 13 13 13 14 14 14 14 14 14 13 13 13 12 12 11 11 10 10 11 11 11 11 11 11 11 11 11
11 10 10 11 11 11 9 8 8 8 8 8 8 7 7 7 7 7 7 7 7 6 6 6 6 7 8 8 8 8 8 8 9 11 11 11 12 12 12 11 11 12 11 10 10 10 10 11 11 11 12 12 12 12 12 12 12 13 13 13 13 13 13 13 12 12 12 12 11 11 11 10 10 10 10 10 10 10 10 10 10 10 10 10 10
10 9 9 9 10 9 8 7 8 8 8 8 8 8 7 7 7 8 8 8 7 7 6 6 5 6 7 8 8 8 9 9 9 10 10 11 12 12 12 13 13 13 12 11 10 10 10 10 11 11 11 12 12 12 11 11 12 12 12 12 12 12 12 11 11 10 10 10 10 9 9 9 9 9 10 10 10 10 9 9 9 9 9 9 9
10 9 8 9 9 9 8 7 8 9 9 9 8 8 7 8 9 10 10 10 9 9 9 8 7 7 8 9 9 9 9 9 9 9 10 10 11 12 12 13 13 13 12 12 12 11 11 10 10 11 11 11 11 10 10 11 11 11 11 11 11 11 11 10 10 9 9 9 9 9 9 9 9 9 9 9 8 8 8 7 7 7 7 8 8
10 9 9 9 9 9 8 8 8 9 10 9 9 8 8 10 12 13 13 12 12 11 11 11 10 10 10 10 10 10 10 10 10 10 10 10 11 12 12 12 13 13 12 12 12 12 12 11 10 10 11 11 10 10 10 11 11 11 11 11 11 10 9 9 9 9 8 8 9 9 9 9 9 9 8 7 7 6 6 6 6 6 6 6 7
11 10 9 9 9 9 9 9 9 10 10 10 9 10 10 12 14 15 14 14 14 13 13 12 12 12 12 12 11 11 11 11 10 10 10 11 11 11 11 12 12 12 12 12 13 14 13 13 12 12 12 11 11 11 11 11 11 11 11 10 10 10 9 9 9 9 9 9 9 9 9 9 8 8 7 7 6 6 6 6 6 6 6 6 6
11 10 10 9 9 10 10 11 11 11 11 11 11 11 13 14 16 16 16 16 15 15 15 14 13 14 14 13 12 12 12 11 11 11 11 11 11 11 11 11 12 12 12 13 14 15 15 14 14 13 13 12 12 12 11 11 11 10 10 10 10 10 10 9 9 9 9 9 9 9 9 8 8 8 8 7 7 7 7 6 6 6 6 7 7
10 10 10 10 10 11 11 11 11 12 12 12 12 13 14 16 16 16 16 17 16 16 17 16 15 15 15 14 14 13 13 12 12 12 12 12 12 12 12 12 12 13 13 13 14 15 15 15 14 13 12 12 11 11 11 11 11 11 11 11 11 10 10 10 10 10 9 9 9 9 9 8 8 8 8 7 7 7 7 7 7 8 8 9 9
9 9 9 10 11 11 11 11 11 12 12 13 14 14 15 16 16 16 17 17 17 17 17 16 16 17 17 16 15 15 14 14 13 13 13 13 13 13 12 12 13 13 14 14 14 14 14 14 14 13 12 12 11 11 11 11 11 11 11 11 11 10 10 10 10 9 9 8 8 8 8 8 8 8 8 8 8 8 8 9 9 9 10 10 11
9 9 9 10 11 11 11 11 12 12 13 14 14 14 15 15 15 16 17 18 18 18 17 17 17 17 17 17 16 16 15 14 14 14 14 13 13 13 13 13 13 14 14 14 14 14 13 13 12 12 12 12 12 11 11 10 10 10 10 10 10 10 9 9 9 9 8 8 8 8 9 9 9 10 10 10 10 11 11 11 11 12 12 13 13
9 9 9 10 11 11 11 11 12 13 14 14 14 14 14 14 14 15 16 17 18 17 17 17 16 16 17 17 17 16 15 15 14 14 14 13 13 13 13 13 13 13 14 14 13 13 13 12 12 11 11 11 11 10 10 10 9 9 9 9 9 9 9 9 9 9 9 9 10 10 11 11 12 12 12 12 12 12 12 12 12 13 13 13 13
10 10 10 11 11 11 11 12 12 13 14 13 13 13 13 13 13 14 15 16 17 17 16 16 15 16 16 17 17 16 15 15 14 14 14 14 14 13 13 13 13 13 13 13 13 13 12 12 11 11 10 10 9 9 9 9 9 9 9 9 9 9 10 10 10 10 11 11 12 12 13 13 13 13 13 13 13 13 13 13 13 13 13 13 13
10 10 11 12 12 12 12 12 12 12 13 12 12 12 13 12 12 13 14 15 16 17 16 15 14 15 16 16 16 16 16 15 15 14 14 14 14 14 13 13 13 13 13 13 12 12 12 12 11 11 11 10 9 9 9 9 9 9 10 10 10 11 11 11 12 12 12 13 13 13 13 13 13 13 14 14 14 14 14 13 13 13 12 12 13
10 10 11 12 13 13 13 13 13 12 13 13 12 12 12 11 11 13 13 14 15 15 15 14 14 14 15 15 16 16 16 16 15 15 15 15 15 15 14 13 13 13 13 13 13 13 12 12 13 13 12 12 11 11 10 10 11 11 11 12 12 12 12 13 13 13 13 13 13 13 13 13 13 14 14 14 14 14 13 13 13 13 13 13 14
10 10 11 11 12 13 13 14 14 13 13 13 12 12 11 11 12 13 13 13 13 14 13 13 13 13 13 14 15 15 15 16 15 15 15 16 16 15 15 14 14 14 14 14 14 14 14 13 14 14 14 13 13 12 12 12 12 12 13 13 13 13 13 13 13 13 13 13 13 13 13 14 14 14 14 13 13 13 13 13 13 14 14 15 15
11 10 10 11 12 12 13 14 14 13 13 12 12 12 11 11 12 12 12 12 12 12 12 12 12 12 12 13 14 14 14 15 15 15 15 15 15 15 15 14 14 14 14 14 14 15 14 14 14 14 14 13 12 12 12 12 12 13 13 13 12 12 12 12 12 13 12 12 13 13 13 14 13 13 13 13 13 13 13 13 14 14 15 15 16
11 11 11 11 12 12 13 14 14 13 13 11 11 11 11 10 11 11 11 11 11 11 12 11 11 11 11 11 12 13 13 13 14 14 14 13 13 13 13 13 13 13 14 14 14 14 14 13 13 13 13 12 11 11 10 10 11 12 12 12 11 11 11 12 12 12 12 12 13 13 13 13 12 12 12 12 12 12 13 13 14 14 15 15 15
11 11 11 11 11 11 12 13 13 13 13 11 10 10 10 10 10 10 11 11 11 11 11 11 10 10 10 10 11 11 12 12 12 12 12 12 12 12 12 12 12 13 12 12 12 13 13 12 12 11 11 11 10 10 9 9 10 11 11 11 11 11 11 12 12 12 12 12 12 12 12 11 11 11 11 11 12 12 13 13 14 14 15 15 16
10 10 10 11 11 11 11 12 13 13 13 12 11 10 9 9 10 10 10 11 11 11 11 11 10 10 9 9 10 10 10 11 11 10 10 10 10 10 10 10 10 11 11 10 10 10 11 10 10 10 10 9 9 9 9 9 10 10 11 11 11 12 12 12 12 12 12 11 11 11 11 11 11 12 11 12 12 13 14 14 15 16 16 17 17
11 11 11 11 11 11 11 11 11 12 12 12 11 10 9 9 9 9 10 10 10 10 10 10 10 9 9 9 9 9 9 9 9 8 8 7 7 8 8 8 8 8 8 8 8 8 8 8 8 8 8 8 8 8 8 9 10 10 11 11 12 12 12 11 11 11 11 11 11 11 11 12 12 12 12 13 14 14 15 15 16 17 17 18 19
12 12 12 12 12 12 12 11 11 11 12 12 11 10 9 9 9 9 9 9 10 10 10 10 10 9 9 8 8 8 8 8 8 7 6 6 5 5 5 6 6 6 7 7 7 7 6 7 7 7 7 7 7 8 9 10 10 11 11 12 12 12 12 12 11 11 11 11 11 12 12 12 12 13 13 13 14 14 15 15 16 17 17 18 19
12 12 12 12 12 12 12 12 11 11 11 11 11 10 9 9 8 8 8 8 9 9 9 9 9 9 9 8 8 8 8 8 7 7 6 5 4 3 3 4 4 5 5 5 5 5 6 6 6 6 6 7 8 9 9 10 11 11 11 12 12 12 11 11 10 10 10 11 11 12 12 12 12 12 13 13 13 14 14 15 15 16 17 18 19
13 13 13 12 12 12 12 12 12 11 11 11 10 10 9 9 8 7 7 7 8 8 8 8 8 8 8 8 8 7 7 7 7 6 5 5 4 4 3 3 3 3 3 3 3 4 5 5 6 6 7 8 8 9 10 10 11 11 11 11 11 11 10 10 10 10 10 11 11 12 12 12 12 12 13 13 14 14 15 15 16 17 18 19 20
13 13 12 12 12 12 13 13 13 12 11 11 10 9 9 8 7 7 6 6 6 7 7 7 7 7 7 7 7 7 7 7 6 6 5 5 4 4 3 3 2 1 1 1 1 2 3 4 5 6 7 8 8 9 9 10 10 10 10 10 9 9 9 9 10 11 11 12 12 13 13 13 13 13 14 14 15 16 16 17 18 19 20 21 21
13 12 12 12 13 13 13 13 13 13 12 11 11 10 9 8 7 6 6 6 6 6 6 6 6 7 7 7 7 7 7 7 7 6 6 5 5 4 3 2 1 0 1 1 0 1 3 5 6 6 7 7 8 8 8 9 9 9 9 9 9 9 10 10 11 12 12 12 13 13 13 13 14 14 14 15 16 16 17 18 19 20 22 23 23
14 14 14 15 15 15 15 15 15 15 15 14 13 12 11 10 8 7 6 6 5 5 5 5 6 6 6 7 7 7 7 7 6 6 5 5 4 4 3 2 2 2 2 1 2 3 5 6 6 7 7 7 7 7 7 7 8 8 9 9 10 10 11 11 11 12 12 13 13 14 14 14 14 15 15 15 16 17 17 18 19 21 22 23 24
16 16 16 17 18 18 18 19 18 18 17 16 15 13 12 11 10 9 7 6 5 5 5 5 5 5 6 6 6 7 7 6 6 5 5 4 4 4 3 2 2 2 2 3 4 5 6 6 6 6 6 5 5 5 6 7 8 9 9 10 10 11 11 11 11 12 12 12 13 13 14 14 15 15 16 16 16 17 18 19 20 22 23 24 25
17 17 18 18 19 19 19 19 18 17 16 15 13 12 11 9 8 8 7 6 5 4 4 4 5 5 5 6 6 6 6 6 6 6 5 5 5 4 3 3 3 3 4 5 6 6 6 6 5 5 4 3 4 5 6 7 8 8 9 9 10 10 10 11 11 11 12 12 12 13 14 15 15 16 17 17 18 19 20 21 23 24 25 26 27
19 19 19 19 18 18 18 17 16 15 13 12 10 9 8 6 5 4 4 4 4 4 4 3 3 4 5 6 6 6 6 6 7 7 6 6 5 4 3 3 3 5 6 7 7 7 6 6 4 3 2 2 3 4 5 6 7 8 8 9 9 9 10 10 10 11 11 11 12 13 14 16 17 18 19 20 21 22 23 24 25 26 27 28 29
20 20 20 20 19 18 17 16 14 13 11 9 8 7 5 4 3 2 1 0 1 1 2 2 2 2 3 5 6 6 6 6 6 7 7 6 5 4 4 4 4 5 7 8 7 7 6 5 5 4 3 3 4 4 5 6 6 7 8 9 9 10 10 11 12 12 12 13 13 15 16 17 19 20 21 22 23 25 26 27 27 28 29 29 30
21 21 21 20 19 18 16 15 13 12 10 9 8 7 6 5 4 4 3 3 3 2 2 1 1 1 1 3 5 5 5 5 6 6 6 5 5 5 5 5 5 6 7 8 8 7 7 6 5 4 4 4 4 4 5 5 6 8 9 10 11 11 12 13 14 15 16 16 16 17 19 20 21 22 23 24 25 26 27 28 29 29 30 30 30
22 21 21 20 19 17 16 14 12 11 10 9 8 7 7 7 6 5 5 5 5 5 4 4 3 2 1 1 3 5 6 5 5 5 5 5 5 5 6 6 6 7 7 7 7 7 6 5 5 4 4 3 3 4 4 5 6 8 10 11 12 13 14 15 16 17 19 21 22 22 23 24 24 25 25 26 27 28 29 30 30 30 30 31 32
24 22 21 20 19 17 15 14 13 11 11 10 9 9 9 8 8 7 7 7 6 6 6 6 5 4 3 3 2 4 6 6 6 6 5 5 5 6 6 7 7 7 7 7 7 6 5 5 4 3 3 2 2 3 4 5 7 9 11 12 13 14 16 17 18 19 21 22 24 25 25 26 27 27 29 31 33 33 33 33 32 32 33 33 34
25 23 22 20 19 18 16 15 14 13 12 12 11 11 11 10 9 8 8 8 8 8 8 8 7 7 6 4 4 4 5 7 6 6 6 5 6 6 7 7 7 7 7 7 6 6 5 4 3 2 1 0 2 4 6 6 8 11 12 13 14 15 17 18 19 21 22 23 24 25 26 28 30 31 33 35 36 36 35 34 33 33 34 34 35
26 25 23 21 20 18 17 16 16 15 14 14 13 13 12 11 10 9 9 9 9 9 9 9 9 9 8 6 6 5 5 6 7 7 6 6 6 6 7 7 7 7 7 7 6 5 4 3 2 2 2 3 4 6 8 8 10 12 13 14 15 17 19 21 21 21 21 23 25 27 28 30 32 33 34 35 35 35 35 35 34 35 35 36 37
27 26 25 23 21 20 19 18 17 17 16 15 14 14 13 11 10 10 11 11 11 10 11 10 10 11 10 8 7 7 6 7 7 7 8 7 7 7 7 7 7 7 7 7 6 5 4 3 3 2 3 4 6 9 10 10 11 12 14 16 18 20 21 22 23 23 24 26 28 28 28 30 32 34 35 36 37 38 38 38 38 38 39 40 40
29 27 26 24 23 22 21 20 19 18 16 15 14 13 12 12 11 12 12 12 12 12 12 12 12 12 12 10 9 9 8 7 7 8 9 9 9 8 7 7 7 7 7 7 6 6 5 4 4 4 5 6 8 11 13 14 13 14 15 17 19 20 21 23 26 28 31 33 31 30 31 34 36 37 38 40 42 42 43 43 44 44 43 42 44
30 28 27 26 25 24 23 21 20 19 17 15 15 13 12 12 12 13 13 13 13 12 12 12 13 13 13 12 10 10 11 9 8 9 10 11 11 10 9 8 8 8 7 7 6 5 4 4 5 6 7 9 11 13 15 16 16 17 17 18 18 20 24 28 32 34 35 35 36 38 40 40 40 41 41 42 44 46 47 48 49 48 45 42 44
31 30 29 28 27 26 24 22 21 19 18 16 15 14 13 14 14 14 14 14 14 13 13 13 13 14 14 13 12 11 12 11 10 10 11 12 12 11 10 10 9 9 8 7 7 6 4 4 6 7 8 10 13 15 16 18 18 19 20 19 18 20 25 30 34 35 36 37 38 40 41 41 41 41 42 42 43 45 48 50 53 53 48 45 46
32 31 30 29 28 26 25 23 22 21 19 17 16 16 15 15 15 14 14 14 14 14 13 13 14 14 15 14 13 12 12 13 11 10 12 13 14 13 12 11 11 10 9 8 7 6 5 5 6 7 8 11 13 15 17 18 19 20 21 20 20 21 25 27 29 32 34 35 36 37 39 41 40 40 42 44 45 45 45 47 51 52 50 47 46
33 33 31 30 29 27 26 24 23 22 20 18 17 18 17 16 16 15 14 15 15 14 14 14 15 15 16 15 14 13 12 13 13 12 12 13 14 14 13 12 12 11 9 9 8 7 6 6 7 8 9 11 13 14 16 17 19 20 21 22 21 21 23 24 25 29 33 35 35 34 36 39 40 39 40 44 46 47 47 46 46 47 47 45 44
35 34 33 31 30 29 27 26 25 24 22 20 19 19 18 17 16 15 15 15 15 15 15 15 16 16 16 16 15 14 14 13 13 13 12 13 14 15 14 13 12 11 10 9 9 8 7 7 7 9 11 12 13 15 16 17 19 20 20 22 22 23 25 25 24 27 32 34 34 32 33 38 42 40 40 44 46 47 47 47 45 43 42 43 43
35 35 34 33 32 31 29 27 26 24 23 21 21 20 19 17 16 15 15 15 15 15 16 16 16 17 17 16 15 15 14 14 13 13 14 14 15 16 15 14 13 12 11 10 10 9 9 8 9 11 13 13 14 16 18 19 20 19 19 21 23 26 28 28 27 29 34 37 38 37 35 39 44 43 43 45 47 46 46 46 46 43 41 41 43
36 35 34 34 34 33 31 29 28 26 24 22 22 21 20 18 17 16 15 15 15 15 16 16 17 17 17 17 16 15 15 14 13 13 14 15 16 16 16 15 14 13 12 11 11 11 11 10 11 12 14 15 16 17 19 20 21 20 19 20 23 25 28 30 30 32 36 40 43 41 37 39 43 44 44 45 46 45 45 44 44 43 42 42 44
35 35 34 34 34 33 32 30 29 27 25 23 23 22 20 19 18 17 16 16 15 16 16 17 17 17 17 17 17 17 16 15 14 14 14 16 16 16 17 16 15 14 13 13 13 13 13 12 12 14 16 17 18 19 21 22 22 22 22 21 23 24 26 30 32 33 36 39 41 40 37 39 42 42 43 44 44 44 43 43 42 41 40 41 43
34 34 34 35 34 33 32 30 29 27 26 25 24 23 21 20 19 18 18 17 16 16 17 18 18 17 17 17 16 17 17 16 15 14 15 16 17 17 17 17 17 16 15 14 15 15 14 14 14 16 17 18 19 21 23 24 24 25 25 25 26 26 27 30 33 35 37 39 40 39 37 38 41 42 43 44 44 42 42 42 41 41 40 40 42
34 34 34 34 32 32 31 29 28 27 27 27 25 24 23 22 20 19 19 18 18 18 18 19 19 18 17 17 16 17 17 16 15 14 14 16 17 18 19 19 19 18 17 16 17 17 15 15 16 18 19 20 21 23 25 26 27 28 29 29 30 31 31 33 35 37 39 40 41 41 40 39 40 40 40 41 40 40 40 40 40 40 40 40 41
34 34 33 32 31 31 30 29 28 28 28 28 27 25 25 24 22 21 20 19 19 18 19 20 19 19 18 18 17 17 17 16 15 15 15 15 16 18 19 20 20 19 18 19 19 18 16 17 19 20 21 21 23 25 27 28 29 31 32 32 34 35 36 37 38 41 44 45 44 44 43 43 42 42 40 38 38 39 39 39 39 40 39 40 40
33 33 32 32 30 30 29 29 28 28 29 29 27 26 26 25 23 22 22 21 19 18 19 20 20 20 20 20 19 18 17 17 17 17 17 16 16 18 20 21 21 20 20 21 21 18 17 19 21 22 22 23 25 27 29 30 31 33 34 35 36 38 39 41 42 44 45 46 46 46 45 45 46 46 45 42 40 39 40 40 41 41 41 42 42
32 32 31 30 29 29 29 28 28 29 29 29 27 27 26 26 25 24 24 22 20 18 19 20 21 22 22 22 21 19 18 18 18 18 18 17 17 18 20 21 20 21 22 23 21 19 19 20 22 23 23 25 26 28 30 32 33 34 35 37 39 40 42 43 45 46 44 44 46 47 46 47 47 49 50 49 45 43 41 40 41 43 44 45 46
Wind_Direction
121 118 116 112 108 104 100 96 96 98 100 100 99 95 92 90 88 87 86 86 85 85 85 85 86 86 85 84 85 89 90 86 83 82 80 79 79 80 81 83 84 83 81 82 82 82 82 83 85 86 88 88 85 83 81 80 79 79 79 79 79 79 78 76 75 74 75 75 75 75 74 73 72 71 70 67 65 63 62 61 60 59 58 57 55
119 116 113 110 108 105 103 99 97 99 100 99 95 92 90 89 87 87 88 87 85 84 83 81 83 85 87 87 87 90 96 96 92 89 85 81 80 79 80 81 83 84 83 84 85 86 85 84 85 85 86 86 85 84 83 83 82 81 80 80 79 78 77 75 74 73 72 72 71 70 70 69 68 67 67 65 63 62 61 60 60 60 58 56 53
118 116 113 112 111 109 107 103 99 97 99 100 95 91 89 89 89 89 89 87 85 84 81 79 82 87 91 92 92 95 100 103 101 98 93 86 82 80 79 79 81 83 83 83 84 86 86 85 85 85 86 86 86 85 86 86 85 84 82 80 78 76 74 73 72 70 69 68 66 65 65 65 66 66 66 65 65 64 62 60 59 57 54 51 47
118 117 118 119 118 116 114 111 104 101 99 97 94 92 90 89 87 85 85 86 86 85 84 82 86 95 100 100 99 102 106 108 107 104 99 92 87 84 83 83 81 80 80 80 81 83 85 86 86 86 85 85 85 85 86 85 83 81 80 78 75 71 69 68 67 65 64 63 63 64 64 65 67 67 66 65 64 63 61 58 55 51 48 44 41
120 122 125 126 126 124 122 117 107 102 100 97 96 94 91 87 83 81 81 83 83 85 87 87 91 98 104 105 105 108 111 112 113 110 103 98 94 90 89 88 83 79 78 78 78 79 80 83 86 86 85 84 84 84 82 81 80 78 76 74 71 69 67 66 64 61 60 60 63 65 66 66 65 64 64 63 61 60 58 55 50 46 42 40 38
124 126 129 131 131 129 126 120 109 104 102 102 101 97 91 85 84 83 82 81 81 81 84 87 91 96 100 103 107 111 115 117 117 113 108 105 102 97 94 91 84 80 80 81 79 78 78 79 83 86 87 86 85 82 79 77 76 74 71 67 66 65 65 65 63 60 60 62 65 66 65 64 62 60 58 58 56 52 48 44 39 37 35 36 36
126 127 128 130 130 129 126 119 113 109 104 102 100 96 92 90 88 87 84 81 81 81 83 85 91 95 99 102 107 112 116 118 118 114 111 109 106 101 96 92 86 83 84 85 84 81 80 79 79 81 84 85 82 78 75 72 69 66 62 59 59 61 63 64 65 65 65 65 66 64 61 58 55 51 47 44 40 34 30 27 26 26 27 29 30
123 123 122 122 124 125 123 117 114 110 104 100 99 98 97 95 92 88 86 85 84 85 85 86 91 95 98 102 107 113 115 117 116 113 111 110 108 104 99 94 90 87 85 84 86 85 83 81 78 78 80 81 80 76 73 68 64 61 60 59 60 62 64 67 69 69 67 65 61 57 52 48 44 40 35 30 24 21 18 15 15 16 17 19 20
120 119 118 118 120 121 119 115 111 108 104 102 101 101 99 95 92 90 89 89 88 87 87 88 92 96 98 101 106 110 112 113 113 111 110 109 109 106 101 97 92 90 87 87 88 90 89 86 83 80 78 77 77 76 73 70 67 66 65 65 65 65 66 67 67 65 62 59 54 49 45 40 36 32 28 24 19 16 14 13 12 12 13 13 13
119 118 117 117 118 119 117 112 109 107 106 104 102 100 98 94 91 91 91 92 93 91 90 91 93 96 99 102 104 106 108 110 111 110 109 109 108 106 102 98 94 93 92 92 91 91 90 89 88 86 82 78 76 75 75 75 73 71 70 68 68 67 66 64 62 59 56 52 47 42 36 31 27 22 20 18 16 14 13 12 11 11 12 11 11
123 122 120 120 120 119 116 113 111 109 106 105 104 102 99 94 91 90 90 92 94 95 96 96 96 98 101 103 103 104 106 108 109 109 108 108 107 106 103 100 97 95 95 93 91 90 88 87 88 88 87 84 81 78 76 76 75 73 71 69 67 65 63 59 56 51 46 41 36 30 25 23 22 20 19 18 17 16 15 14 14 14 13 12 11
131 131 128 126 124 123 118 114 113 112 108 104 104 105 101 98 94 91 89 91 93 97 99 100 101 102 104 105 105 106 108 109 109 109 108 107 106 103 102 100 98 97 96 95 93 91 89 88 86 86 85 85 84 82 78 74 72 69 68 64 61 58 55 52 47 42 37 34 31 29 28 28 27 26 25 25 25 23 21 20 19 17 15 13 12
137 138 137 134 131 127 121 116 113 114 113 106 105 109 107 105 102 95 92 92 93 95 98 101 103 105 106 107 108 109 110 111 110 110 108 107 105 102 100 98 97 96 95 94 93 92 91 89 87 84 82 81 81 79 76 72 68 65 63 59 57 54 52 50 45 42 40 38 38 36 35 34 33 32 31 30 28 26 24 21 20 17 16 14 13
141 143 143 141 137 132 127 122 117 116 117 110 109 114 115 115 112 104 100 97 95 95 96 99 103 106 108 108 109 110 111 111 109 108 108 107 105 103 101 99 97 95 94 93 91 89 87 86 85 82 79 76 74 73 71 71 69 66 65 62 61 58 56 54 50 47 45 44 43 41 40 39 38 37 35 32 29 26 24 22 20 19 18 16 13
142 146 148 146 142 137 133 130 128 125 124 123 124 126 127 129 122 113 107 100 98 96 96 98 101 104 107 109 109 110 110 110 109 109 108 108 108 107 105 103 102 100 97 95 92 88 86 84 84 82 79 76 74 74 74 74 74 73 71 69 67 64 60 57 54 51 50 49 48 47 46 44 42 41 38 35 31 28 26 23 21 19 17 15 11
143 148 151 149 145 142 139 137 136 135 135 137 139 137 135 132 124 117 113 108 104 102 100 100 101 103 106 109 109 109 108 108 108 108 108 108 109 109 110 109 106 104 102 98 94 91 88 85 84 83 81 79 77 76 78 78 79 78 75 72 69 66 62 59 57 55 53 53 52 51 49 47 44 43 40 37 33 29 25 22 19 16 14 12 10
147 150 154 153 150 146 143 140 139 139 139 141 142 138 133 128 124 122 121 118 115 111 109 107 106 106 106 107 108 108 106 105 105 104 104 105 106 108 109 109 106 103 100 97 94 91 88 85 83 82 81 79 77 76 77 78 79 78 76 73 69 66 63 61 59 57 55 54 53 52 50 48 46 43 40 36 31 26 22 18 16 13 11 10 8
150 153 157 157 154 150 147 143 141 139 138 139 140 138 136 133 132 134 132 130 128 124 121 119 117 115 113 110 108 107 104 101 102 101 100 101 103 104 104 104 103 100 97 95 93 91 87 83 80 78 77 76 75 74 74 75 77 77 76 72 68 66 63 62 60 58 57 55 54 52 51 50 46 42 37 32 27 23 20 17 14 12 10 8 6
157 158 161 161 158 153 150 146 143 140 138 138 140 141 142 142 143 144 142 141 140 137 133 131 129 126 124 120 115 112 108 104 103 102 100 100 101 102 101 101 100 99 98 95 92 89 85 80 76 72 72 72 71 72 73 73 75 76 75 73 71 68 66 64 63 61 59 56 54 52 50 47 43 38 33 27 23 21 19 16 13 11 9 6 3
164 164 165 165 162 157 154 151 146 143 140 139 140 143 146 149 153 154 153 151 149 147 144 140 138 136 135 132 127 122 116 112 110 107 105 103 102 102 102 102 102 101 98 93 87 83 79 75 70 67 69 70 71 72 74 76 78 79 79 77 74 71 69 67 64 61 58 55 52 49 46 42 37 34 30 25 21 19 16 13 11 9 6 2 359
171 170 171 170 167 162 159 156 153 148 145 143 142 142 144 150 159 163 162 160 158 155 152 148 146 144 143 142 139 135 130 125 121 118 116 112 106 105 104 102 100 96 91 84 79 73 69 64 60 62 67 72 76 79 81 82 82 82 80 77 74 71 68 65 61 58 54 51 48 45 41 37 32 28 23 19 16 13 10 8 6 4 2 359 356
174 174 174 174 171 167 164 161 160 155 150 148 147 145 144 148 157 167 170 169 166 163 160 157 153 149 147 147 147 146 143 139 137 137 135 129 122 115 109 106 100 92 83 74 66 57 50 49 52 60 69 76 82 85 86 86 82 80 78 75 72 69 67 63 59 55 51 47 43 38 33 28 23 18 13 11 9 7 5 4 2 360 358 355 353
176 176 176 176 174 171 166 163 162 160 156 153 152 150 149 149 153 161 169 173 174 172 169 165 161 157 153 151 151 151 151 150 150 152 152 149 147 138 121 117 112 100 86 70 52 35 29 35 49 66 79 85 89 89 87 85 82 78 75 72 70 67 65 61 56 50 44 38 33 28 23 19 16 12 8 6 4 3 1 359 358 355 353 351 350
178 177 177 176 174 172 168 163 160 159 156 153 154 154 153 153 153 156 162 168 174 177 177 174 172 167 163 159 157 155 153 152 154 157 162 163 165 166 155 139 129 109 89 74 44 18 21 37 57 76 88 94 94 91 88 84 80 76 72 69 65 61 56 50 44 37 31 27 23 19 17 14 11 8 5 2 1 359 356 354 352 351 350 350 349
178 175 174 173 171 170 166 161 157 153 151 150 150 152 153 152 153 154 156 160 167 174 176 177 175 172 168 162 158 155 153 152 156 160 165 171 177 181 174 159 144 114 81 61 27 20 50 71 82 90 96 98 97 93 89 84 79 74 68 62 55 48 40 33 28 23 19 16 14 12 11 9 7 5 2 359 357 355 353 351 349 347 347 348 348
171 166 164 161 159 159 157 154 151 147 144 142 141 141 142 143 146 151 155 157 161 167 172 176 174 169 165 159 155 153 151 152 156 162 167 174 182 187 185 186 198 297 314 311 26 115 113 111 108 107 105 102 98 93 86 78 70 61 52 43 36 29 25 21 18 15 13 10 8 7 6 5 3 1 357 355 353 351 350 349 347 346 346 345 345
163 157 153 150 146 144 143 141 138 136 132 130 128 126 125 125 127 133 144 156 162 167 172 175 175 170 163 158 155 154 155 158 163 169 175 183 194 203 209 223 253 280 283 253 178 149 135 129 122 116 110 103 94 84 71 59 49 40 33 29 26 23 20 18 15 12 9 7 4 2 0 358 356 354 353 351 349 348 348 347 346 345 344 342 342
162 155 148 144 140 137 135 134 132 130 128 126 123 120 117 113 112 112 117 130 148 167 179 185 187 183 176 171 168 168 171 175 180 187 194 203 214 219 225 238 250 248 227 192 171 155 141 134 127 121 112 99 83 65 52 43 36 32 29 26 25 23 20 17 13 9 6 2 359 355 352 350 348 348 347 347 346 345 344 343 343 342 341 340 338
166 157 150 145 140 138 136 135 135 133 131 129 126 124 120 113 107 102 99 101 109 129 162 188 202 207 206 200 194 192 193 196 202 208 212 218 225 226 225 227 221 205 185 172 165 157 147 142 135 127 114 93 68 51 44 42 38 34 30 27 26 23 18 12 8 5 2 358 354 349 345 344 343 344 344 343 342 341 340 339 337 336 335 334 333
171 164 158 153 150 148 146 145 145 144 142 140 139 136 134 129 121 107 96 89 86 90 105 142 189 211 217 217 214 210 208 210 214 219 220 221 223 221 212 203 192 181 173 169 166 162 158 156 154 147 127 94 70 59 53 49 43 36 29 28 27 23 16 9 4 1 358 355 352 347 345 343 342 342 341 340 338 337 335 334 332 331 330 330 330
177 172 167 163 162 161 160 160 160 161 162 163 164 166 166 170 177 184 185 95 62 66 73 82 109 184 211 218 219 215 211 211 214 218 217 215 213 206 192 184 177 174 173 170 169 170 170 168 165 156 137 110 87 73 63 53 41 31 26 24 21 15 8 3 357 353 351 350 349 346 343 342 340 339 337 335 334 333 331 330 329 328 328 327 327
183 178 174 171 171 171 171 174 177 179 183 188 193 197 203 214 224 236 251 262 268 276 290 338 33 52 185 217 219 217 213 213 216 217 212 205 199 188 180 176 174 176 176 174 173 173 173 169 160 145 128 110 89 71 59 47 29 16 13 13 11 4 358 354 351 347 345 343 343 341 338 337 335 334 332 330 328 327 326 326 325 325 325 325 325
188 184 181 179 179 180 182 187 191 195 201 206 213 218 222 229 235 241 250 258 263 267 271 277 293 320 335 268 224 217 213 213 219 222 214 201 191 183 179 176 176 178 179 178 176 171 167 163 152 135 120 102 75 50 36 26 12 2 360 1 0 356 351 350 349 346 343 341 340 338 336 334 333 331 329 327 326 325 324 322 321 320 320 319 319
191 189 188 187 188 190 193 198 204 209 215 221 227 232 234 237 239 243 248 252 256 258 263 268 273 280 291 299 272 229 216 214 219 224 217 199 187 183 182 180 179 180 180 180 177 169 163 157 148 132 115 101 57 17 4 359 356 352 351 352 353 351 348 348 348 348 345 341 338 335 333 333 331 331 331 330 329 326 323 321 319 317 316 316 316
194 193 194 194 196 199 202 207 213 219 225 229 233 237 240 241 241 244 247 249 250 252 257 261 261 264 269 275 282 265 232 222 221 226 222 201 186 187 187 184 184 183 181 179 177 170 162 157 158 157 145 301 325 341 346 348 349 347 346 347 349 348 345 346 348 346 340 335 332 332 332 332 332 331 331 329 327 326 325 324 321 318 317 317 318
197 198 199 201 204 207 210 216 221 225 228 232 234 236 240 241 240 240 244 247 249 250 255 258 256 258 262 261 266 270 255 239 231 231 230 215 197 193 193 190 188 187 185 182 181 179 177 181 196 221 275 303 317 328 337 344 343 341 342 345 347 346 344 345 342 336 332 330 332 333 334 335 334 332 331 329 327 327 326 325 321 319 318 318 321
200 202 202 205 210 214 217 222 226 229 232 234 234 236 239 240 238 236 238 243 247 250 254 258 257 257 261 262 260 263 260 250 240 233 232 228 217 206 203 201 197 196 195 191 191 195 201 214 233 257 288 308 316 322 332 342 341 339 341 342 345 346 342 336 330 327 331 334 334 334 336 338 338 335 333 330 328 327 325 323 321 319 318 320 324
203 205 206 209 214 218 221 225 228 232 235 237 237 239 240 239 236 235 235 239 244 250 255 259 259 259 262 263 261 261 262 254 241 235 231 229 227 221 214 212 211 210 208 205 207 214 225 242 265 294 315 323 322 325 333 338 338 338 338 340 343 340 331 325 325 328 334 337 339 338 340 342 340 338 335 332 329 327 325 324 321 318 320 322 320
207 208 210 213 217 220 223 227 230 234 238 240 241 242 240 236 235 237 239 243 248 254 259 262 264 263 264 264 261 260 263 260 244 235 233 231 230 228 223 218 219 220 219 217 220 228 242 265 291 312 322 323 322 326 331 332 332 333 333 337 339 331 326 330 334 336 339 342 343 341 340 341 339 337 335 332 329 327 325 323 320 318 321 320 313
210 212 214 217 220 222 224 228 232 236 239 242 243 243 239 235 236 239 244 250 256 260 264 266 266 265 265 265 262 259 262 264 255 237 233 234 233 233 231 224 222 224 225 225 228 234 244 263 285 302 312 314 316 323 328 329 329 327 326 331 332 326 329 336 338 339 341 341 339 337 336 336 336 334 332 330 328 326 324 323 320 319 320 318 313
214 216 218 220 223 225 226 230 234 238 241 242 241 241 238 237 239 242 247 253 258 263 266 266 264 263 263 263 261 258 256 261 261 247 235 234 234 236 235 230 228 229 229 231 233 235 238 250 271 291 304 307 312 320 324 324 326 325 322 325 327 326 331 337 337 336 335 333 332 334 335 333 333 332 330 329 327 325 323 321 318 318 318 317 316
219 220 222 224 226 228 230 232 235 240 242 241 238 239 240 241 243 245 247 250 253 259 263 265 264 262 261 260 259 258 255 256 259 256 245 237 234 236 235 230 230 232 232 235 237 238 241 254 274 291 299 302 307 314 317 318 323 325 324 324 327 330 334 339 338 333 329 328 330 335 336 332 330 331 332 330 327 325 324 321 318 317 316 314 315
223 223 225 227 230 232 233 234 237 240 242 240 238 239 243 245 247 247 247 247 249 253 259 263 265 265 264 262 259 257 256 255 256 258 256 247 238 235 233 228 228 232 234 238 242 245 252 264 279 288 293 298 304 310 313 317 322 326 328 328 328 332 336 339 340 335 329 328 330 336 341 335 330 333 336 332 327 326 325 321 318 317 314 311 312
226 226 228 230 233 235 237 238 239 241 241 239 238 242 246 248 250 250 249 247 247 250 256 261 265 267 267 265 262 257 254 254 256 259 260 257 246 239 235 230 229 233 238 242 246 253 261 269 278 285 291 298 306 311 315 318 322 326 331 331 328 330 334 338 342 340 334 332 333 338 345 340 333 335 338 332 328 327 326 321 318 318 315 312 311
227 228 230 232 234 237 239 240 242 242 241 239 239 243 248 251 252 253 252 251 248 251 256 261 264 267 267 266 263 259 255 254 258 261 263 263 256 247 240 234 232 236 242 246 250 255 263 272 280 287 293 301 309 313 315 317 320 323 328 330 327 328 333 336 341 342 337 334 334 338 346 344 336 336 337 333 330 330 326 321 317 316 315 314 312
228 229 231 233 235 237 240 241 243 244 242 240 240 244 249 252 254 254 254 253 251 251 254 258 261 264 265 264 261 258 256 256 259 263 266 268 264 255 246 240 238 240 244 249 253 258 265 273 281 288 295 303 310 313 313 315 319 323 327 329 328 331 335 337 338 339 336 335 334 337 346 346 337 336 337 334 332 333 328 321 317 314 313 312 311
228 229 231 233 235 237 239 240 242 243 243 241 240 243 247 250 253 254 255 255 254 253 254 257 260 263 265 265 261 257 254 254 257 264 270 273 270 262 251 244 242 244 246 251 256 262 270 278 284 290 297 304 310 314 315 317 322 325 328 331 331 334 338 338 337 336 336 335 332 334 343 344 339 338 338 335 335 335 331 324 321 318 315 314 312
229 230 232 234 236 237 238 238 239 241 242 241 240 242 245 248 252 255 256 256 256 256 258 259 262 265 266 266 262 256 253 251 255 267 276 276 272 263 254 247 244 246 249 253 260 268 276 283 288 293 300 306 312 316 317 319 323 327 330 333 333 333 336 337 336 335 334 333 329 331 339 343 340 339 339 337 336 336 331 327 324 321 318 316 313
230 232 234 234 235 236 236 236 237 237 238 239 240 241 244 248 253 256 258 259 259 259 261 263 265 267 268 266 262 258 255 254 259 272 282 280 271 262 254 248 245 247 250 255 263 272 281 286 290 295 301 307 312 315 317 320 323 326 330 332 330 330 332 334 334 333 332 331 329 331 337 341 339 338 339 341 341 337 331 326 324 322 320 318 315
232 233 234 234 234 235 236 236 236 236 237 239 241 243 247 250 254 258 260 261 260 260 261 262 265 267 268 267 264 261 259 259 264 276 283 280 271 261 253 248 246 247 250 257 266 275 283 287 292 297 303 308 312 314 316 319 322 324 326 327 327 327 329 329 329 331 331 329 329 332 337 340 339 338 339 343 346 341 332 327 326 324 323 321 319
234 234 234 234 235 237 237 238 238 238 240 241 243 246 249 253 257 260 262 264 263 260 259 260 262 265 267 268 267 264 261 261 266 276 281 278 270 261 254 250 247 247 251 260 269 277 282 286 291 298 303 307 310 312 315 317 319 320 322 323 324 325 325 325 325 328 329 329 328 331 336 339 340 339 339 342 345 343 336 330 328 327 326 325 322
Height
5944 5944 5944 5944 5944 5944 5944 5944 5944 5944 5945 5945 5945 5945 5944 5944 5944 5943 5942 5942 5942 5941 5942 5941 5941 5940 5941 5941 5941 5941 5942 5942 5942 5943 5943 5943 5943 5943 5943 5942 5942 5942 5942 5942 5942 5942 5942 5942 5942 5942 5942 5942 5942 5942 5941 5941 5941 5941 5941 5941 5940 5940 5939 5939 5939 5939 5939 5939 5938 5938 5938 5938 5937 5937 5937 5936 5936 5935 5935 5934 5933 5933 5932 5931 5931
5946 5945 5945 5945 5945 5945 5945 5945 5946 5946 5946 5946 5946 5946 5945 5945 5944 5944 5943 5943 5943 5943 5943 5942 5942 5942 5942 5942 5942 5943 5943 5943 5943 5944 5944 5944 5944 5944 5944 5944 5944 5943 5944 5944 5944 5944 5944 5944 5944 5944 5944 5943 5943 5943 5943 5943 5943 5942 5942 5942 5942 5941 5941 5941 5941 5941 5941 5940 5940 5940 5940 5939 5939 5939 5938 5938 5937 5937 5936 5935 5935 5934 5933 5933 5932
5947 5947 5947 5947 5947 5947 5947 5947 5947 5947 5947 5947 5947 5946 5946 5945 5945 5945 5944 5944 5944 5943 5943 5943 5943 5943 5943 5943 5944 5944 5944 5944 5944 5945 5945 5945 5945 5946 5946 5945 5945 5945 5945 5945 5945 5945 5945 5945 5945 5945 5945 5945 5945 5945 5945 5944 5944 5944 5944 5944 5943 5943 5943 5943 5943 5943 5942 5942 5942 5942 5941 5941 5941 5940 5940 5939 5939 5938 5937 5937 5936 5935 5934 5933 5932
5948 5948 5948 5948 5948 5949 5948 5948 5949 5948 5948 5948 5948 5947 5947 5946 5946 5946 5945 5945 5944 5944 5944 5944 5944 5944 5944 5944 5945 5945 5945 5945 5945 5946 5946 5946 5947 5947 5947 5947 5947 5947 5947 5947 5947 5947 5947 5947 5947 5947 5947 5947 5947 5947 5946 5946 5946 5946 5946 5945 5945 5945 5945 5945 5945 5944 5944 5944 5944 5943 5943 5943 5942 5942 5941 5941 5940 5939 5939 5938 5937 5936 5935 5934 5933
5949 5949 5950 5950 5950 5950 5950 5950 5949 5949 5949 5949 5948 5948 5948 5947 5947 5946 5946 5945 5945 5945 5944 5945 5945 5945 5945 5945 5945 5946 5946 5946 5946 5947 5947 5947 5948 5948 5948 5948 5948 5948 5948 5948 5948 5948 5948 5948 5948 5948 5948 5948 5948 5948 5948 5948 5948 5948 5947 5947 5947 5947 5947 5947 5946 5946 5946 5946 5945 5945 5945 5944 5944 5943 5943 5942 5941 5941 5940 5939 5938 5937 5936 5935 5935
5950 5950 5951 5951 5952 5951 5951 5951 5950 5950 5950 5950 5950 5949 5949 5948 5948 5947 5947 5947 5946 5946 5946 5945 5945 5945 5945 5946 5946 5947 5947 5948 5948 5948 5948 5948 5949 5949 5949 5949 5949 5949 5949 5949 5949 5950 5950 5950 5950 5950 5950 5950 5950 5950 5950 5950 5950 5949 5949 5949 5949 5949 5948 5948 5948 5948 5948 5947 5947 5947 5946 5946 5945 5945 5944 5944 5943 5942 5941 5940 5939 5938 5938 5937 5936
5951 5952 5952 5952 5952 5952 5952 5951 5951 5951 5951 5951 5951 5950 5950 5950 5949 5948 5948 5948 5947 5947 5947 5947 5946 5946 5946 5946 5947 5948 5948 5949 5949 5949 5949 5949 5950 5950 5950 5950 5950 5950 5950 5950 5951 5951 5951 5951 5951 5951 5951 5951 5951 5951 5951 5951 5951 5951 5951 5950 5950 5950 5950 5950 5949 5949 5949 5949 5948 5948 5948 5947 5947 5946 5945 5945 5944 5943 5942 5941 5940 5940 5939 5938 5937
5952 5953 5953 5953 5953 5953 5952 5952 5952 5952 5952 5952 5952 5951 5951 5951 5950 5950 5949 5949 5948 5948 5948 5948 5948 5947 5947 5948 5948 5949 5950 5950 5950 5950 5950 5950 5951 5951 5951 5951 5951 5951 5951 5951 5951 5952 5952 5952 5953 5953 5953 5953 5953 5953 5953 5953 5952 5952 5952 5952 5952 5951 5951 5951 5951 5951 5950 5950 5950 5949 5949 5948 5948 5947 5946 5946 5945 5944 5943 5942 5942 5941 5940 5939 5938
5953 5953 5953 5953 5953 5953 5953 5953 5953 5953 5952 5952 5952 5952 5952 5952 5951 5951 5951 5950 5950 5949 5949 5949 5949 5949 5948 5949 5950 5950 5951 5951 5952 5952 5952 5952 5952 5952 5952 5952 5952 5952 5952 5953 5953 5953 5953 5954 5954 5954 5954 5954 5954 5954 5954 5954 5954 5953 5953 5953 5953 5953 5953 5953 5952 5952 5952 5951 5951 5950 5950 5949 5949 5948 5947 5946 5946 5945 5944 5943 5943 5942 5941 5940 5939
5954 5954 5954 5954 5954 5954 5954 5953 5953 5953 5953 5953 5953 5953 5953 5953 5953 5953 5952 5952 5951 5951 5951 5951 5951 5950 5950 5951 5951 5952 5952 5953 5953 5953 5953 5953 5953 5953 5953 5953 5954 5954 5954 5954 5954 5954 5955 5955 5955 5955 5955 5955 5955 5955 5955 5955 5955 5955 5955 5954 5954 5954 5954 5954 5954 5953 5953 5952 5952 5951 5951 5950 5949 5948 5948 5947 5946 5946 5945 5944 5943 5943 5942 5941 5940
5955 5955 5955 5955 5955 5954 5954 5954 5954 5954 5954 5954 5954 5954 5954 5955 5955 5955 5954 5953 5953 5953 5953 5953 5953 5953 5952 5953 5953 5953 5954 5955 5955 5955 5955 5955 5955 5954 5955 5955 5955 5955 5955 5955 5955 5955 5956 5956 5956 5956 5956 5956 5956 5956 5956 5956 5956 5956 5956 5956 5955 5955 5955 5954 5954 5954 5953 5953 5952 5952 5951 5951 5950 5949 5948 5948 5947 5946 5946 5945 5944 5943 5942 5941 5940
5956 5956 5956 5956 5955 5955 5955 5955 5955 5955 5955 5956 5956 5955 5955 5956 5956 5956 5956 5955 5955 5954 5955 5955 5955 5955 5955 5954 5954 5955 5956 5956 5956 5956 5956 5956 5956 5956 5956 5956 5956 5956 5956 5956 5956 5956 5957 5957 5957 5957 5957 5957 5956 5957 5957 5957 5957 5957 5956 5956 5956 5956 5955 5955 5955 5954 5954 5954 5953 5952 5952 5951 5950 5950 5949 5948 5948 5947 5946 5945 5944 5943 5942 5941 5940
5957 5957 5957 5957 5956 5956 5956 5956 5956 5956 5956 5957 5957 5957 5957 5957 5958 5957 5957 5957 5956 5956 5956 5956 5957 5956 5956 5956 5956 5956 5957 5957 5958 5957 5957 5957 5957 5957 5957 5957 5957 5957 5957 5957 5957 5957 5957 5957 5957 5957 5958 5958 5957 5957 5957 5957 5957 5957 5957 5957 5957 5957 5956 5956 5956 5955 5955 5954 5954 5953 5952 5952 5951 5950 5950 5949 5948 5947 5946 5945 5944 5944 5943 5942 5941
5957 5958 5958 5958 5957 5957 5957 5957 5957 5957 5957 5957 5958 5958 5958 5959 5959 5959 5959 5959 5958 5958 5958 5958 5959 5958 5958 5958 5958 5958 5958 5959 5959 5959 5959 5959 5959 5959 5959 5959 5959 5958 5958 5958 5958 5958 5958 5958 5958 5958 5958 5958 5958 5958 5958 5958 5958 5958 5958 5958 5958 5957 5957 5957 5956 5956 5955 5955 5954 5953 5953 5952 5951 5951 5950 5949 5948 5948 5947 5946 5945 5944 5943 5942 5941
5958 5958 5959 5959 5958 5958 5958 5958 5958 5958 5958 5958 5959 5959 5960 5960 5960 5960 5960 5960 5959 5959 5959 5960 5960 5960 5960 5959 5959 5959 5960 5960 5960 5960 5960 5960 5960 5960 5960 5960 5960 5960 5960 5960 5960 5960 5960 5960 5959 5959 5959 5959 5959 5959 5959 5959 5959 5959 5959 5958 5958 5958 5958 5957 5957 5956 5956 5955 5954 5954 5953 5953 5952 5951 5950 5950 5949 5949 5948 5947 5946 5945 5944 5943 5942
5958 5959 5959 5959 5959 5959 5959 5959 5959 5959 5959 5960 5960 5961 5961 5961 5960 5960 5960 5961 5961 5961 5961 5961 5962 5962 5961 5961 5961 5961 5961 5961 5961 5961 5961 5961 5961 5961 5961 5962 5962 5962 5962 5962 5961 5961 5961 5961 5961 5960 5960 5960 5960 5960 5960 5960 5960 5960 5959 5959 5959 5959 5958 5958 5957 5957 5956 5956 5955 5954 5954 5953 5952 5952 5951 5951 5950 5949 5948 5948 5946 5945 5944 5943 5942
5959 5959 5960 5960 5960 5960 5960 5959 5959 5960 5960 5960 5961 5961 5961 5961 5961 5961 5961 5962 5962 5962 5962 5962 5963 5963 5963 5963 5963 5963 5963 5963 5963 5963 5963 5963 5963 5963 5963 5963 5963 5963 5963 5963 5963 5963 5963 5963 5962 5962 5962 5962 5962 5962 5961 5961 5961 5960 5960 5960 5960 5959 5959 5958 5958 5957 5957 5956 5955 5955 5954 5954 5953 5953 5952 5951 5951 5950 5949 5948 5947 5946 5945 5943 5942
5959 5960 5960 5961 5961 5961 5961 5960 5960 5960 5960 5961 5961 5961 5961 5961 5962 5962 5962 5963 5963 5963 5963 5963 5964 5964 5964 5964 5964 5964 5964 5964 5964 5964 5964 5964 5964 5964 5964 5964 5965 5965 5965 5965 5965 5964 5964 5964 5964 5963 5963 5963 5963 5962 5962 5962 5961 5961 5961 5960 5960 5960 5959 5959 5958 5958 5957 5957 5956 5955 5955 5955 5954 5954 5953 5952 5951 5950 5949 5948 5947 5946 5945 5944 5942
5960 5961 5961 5961 5961 5961 5961 5961 5961 5961 5961 5961 5961 5962 5962 5962 5963 5963 5963 5964 5964 5964 5964 5964 5964 5965 5965 5965 5965 5965 5965 5965 5965 5965 5965 5965 5965 5966 5966 5966 5966 5966 5966 5966 5966 5966 5965 5965 5965 5964 5964 5964 5963 5963 5963 5962 5962 5961 5961 5961 5960 5960 5960 5960 5959 5959 5958 5957 5957 5956 5956 5955 5955 5954 5953 5952 5951 5950 5949 5948 5947 5946 5945 5944 5943
5960 5961 5962 5962 5962 5962 5962 5962 5962 5961 5961 5961 5962 5963 5963 5963 5963 5964 5964 5964 5964 5964 5964 5964 5965 5965 5966 5966 5966 5966 5966 5966 5966 5966 5966 5966 5966 5966 5967 5967 5967 5967 5967 5967 5967 5967 5966 5966 5966 5965 5965 5964 5964 5964 5963 5963 5963 5962 5962 5961 5961 5961 5961 5961 5960 5960 5959 5958 5958 5957 5957 5956 5956 5955 5954 5953 5952 5951 5950 5949 5948 5946 5945 5944 5943
5960 5961 5962 5962 5962 5962 5962 5962 5962 5962 5962 5962 5963 5963 5964 5964 5964 5964 5965 5965 5965 5965 5965 5965 5965 5965 5966 5966 5967 5967 5967 5967 5967 5967 5967 5967 5967 5967 5968 5968 5968 5968 5968 5968 5967 5967 5967 5966 5966 5965 5965 5965 5964 5964 5964 5964 5963 5963 5963 5962 5962 5962 5962 5962 5961 5961 5960 5960 5959 5959 5958 5957 5957 5956 5955 5954 5953 5952 5951 5950 5948 5947 5946 5944 5943
5960 5961 5961 5962 5962 5962 5962 5962 5963 5963 5963 5963 5963 5964 5964 5965 5965 5965 5965 5965 5965 5965 5965 5965 5965 5966 5966 5967 5967 5967 5968 5967 5968 5968 5968 5968 5968 5968 5968 5969 5969 5969 5968 5968 5968 5967 5967 5967 5966 5966 5965 5965 5965 5965 5965 5965 5965 5964 5964 5964 5964 5964 5963 5963 5963 5962 5962 5961 5961 5960 5959 5959 5958 5957 5956 5955 5954 5953 5951 5950 5949 5947 5946 5944 5943
5960 5960 5961 5962 5962 5962 5962 5962 5963 5963 5963 5964 5964 5964 5965 5965 5966 5966 5966 5966 5966 5966 5966 5966 5966 5966 5966 5967 5967 5968 5968 5968 5968 5968 5968 5968 5968 5969 5969 5969 5969 5969 5969 5969 5968 5968 5967 5967 5966 5966 5966 5966 5966 5966 5966 5966 5966 5966 5965 5965 5965 5965 5965 5964 5964 5963 5963 5962 5961 5961 5960 5959 5959 5958 5957 5955 5954 5953 5952 5950 5949 5948 5946 5945 5943
5959 5960 5961 5961 5962 5962 5962 5962 5963 5964 5964 5964 5964 5965 5965 5966 5966 5966 5966 5966 5966 5966 5966 5966 5966 5966 5967 5967 5968 5968 5968 5968 5968 5968 5968 5968 5969 5969 5969 5969 5970 5970 5969 5969 5969 5968 5968 5967 5967 5967 5967 5967 5967 5967 5967 5967 5967 5967 5967 5967 5966 5966 5966 5965 5964 5964 5963 5963 5962 5961 5961 5960 5959 5958 5957 5956 5955 5953 5952 5951 5949 5948 5946 5944 5943
5959 5960 5961 5961 5962 5962 5962 5963 5963 5964 5964 5965 5965 5965 5966 5966 5966 5967 5967 5967 5967 5967 5967 5967 5967 5967 5967 5968 5968 5968 5969 5969 5969 5969 5969 5969 5969 5969 5970 5970 5970 5970 5970 5969 5969 5969 5968 5968 5968 5968 5968 5968 5968 5968 5969 5969 5969 5968 5968 5968 5967 5967 5966 5966 5965 5964 5964 5963 5962 5962 5961 5960 5959 5958 5957 5956 5955 5953 5952 5951 5949 5947 5946 5944 5943
5959 5960 5961 5961 5962 5962 5963 5963 5964 5964 5965 5965 5966 5966 5966 5967 5967 5967 5967 5968 5968 5968 5967 5967 5967 5968 5968 5968 5969 5969 5969 5969 5969 5969 5969 5969 5970 5970 5970 5970 5970 5970 5970 5970 5969 5969 5969 5969 5969 5969 5969 5970 5970 5970 5970 5970 5970 5969 5969 5969 5968 5968 5967 5966 5966 5965 5964 5964 5963 5962 5961 5960 5959 5958 5957 5956 5955 5953 5952 5950 5948 5947 5945 5943 5942
5960 5960 5961 5961 5961 5962 5963 5964 5964 5965 5966 5966 5967 5967 5967 5968 5968 5968 5968 5968 5968 5968 5968 5968 5968 5968 5969 5969 5969 5969 5970 5970 5970 5970 5970 5970 5970 5970 5970 5970 5970 5970 5970 5970 5970 5970 5970 5970 5970 5970 5971 5971 5971 5971 5971 5971 5970 5970 5970 5969 5969 5968 5968 5967 5966 5966 5965 5964 5963 5962 5961 5960 5959 5958 5957 5955 5954 5953 5951 5949 5948 5946 5944 5942 5940
5960 5961 5961 5961 5962 5962 5963 5964 5965 5966 5966 5967 5968 5968 5969 5969 5969 5968 5968 5968 5968 5968 5968 5969 5969 5969 5970 5970 5970 5970 5970 5970 5970 5970 5970 5970 5970 5970 5971 5971 5971 5970 5970 5970 5970 5970 5971 5971 5971 5972 5972 5972 5972 5972 5971 5971 5971 5971 5970 5970 5969 5969 5968 5967 5967 5966 5965 5964 5963 5962 5961 5960 5959 5957 5956 5955 5953 5952 5950 5949 5947 5945 5943 5942 5940
5960 5961 5961 5962 5962 5963 5963 5964 5965 5966 5967 5968 5968 5969 5969 5970 5970 5969 5969 5969 5969 5969 5969 5969 5969 5970 5970 5970 5970 5970 5970 5970 5970 5970 5970 5970 5970 5971 5971 5971 5971 5970 5970 5970 5971 5971 5972 5972 5972 5972 5972 5972 5972 5972 5972 5972 5972 5971 5971 5970 5970 5969 5969 5968 5967 5966 5965 5964 5963 5962 5961 5960 5958 5957 5956 5954 5953 5951 5950 5948 5946 5945 5943 5941 5939
5959 5960 5961 5962 5962 5963 5964 5965 5966 5967 5967 5968 5969 5969 5970 5970 5970 5970 5970 5970 5970 5969 5969 5969 5969 5970 5970 5971 5971 5970 5970 5970 5970 5970 5970 5970 5971 5971 5971 5971 5971 5971 5971 5971 5971 5972 5972 5972 5973 5973 5973 5973 5973 5973 5972 5972 5972 5972 5971 5970 5970 5969 5969 5968 5967 5966 5965 5964 5963 5962 5960 5959 5958 5957 5955 5954 5952 5951 5949 5947 5945 5944 5942 5940 5938
5959 5960 5961 5961 5962 5963 5964 5965 5966 5967 5967 5968 5969 5969 5970 5970 5970 5970 5970 5970 5970 5970 5970 5969 5969 5970 5970 5970 5970 5970 5970 5970 5970 5970 5970 5970 5971 5971 5971 5971 5971 5971 5971 5971 5972 5972 5972 5973 5973 5973 5973 5973 5973 5973 5973 5973 5972 5972 5971 5971 5970 5969 5968 5968 5967 5966 5965 5964 5963 5961 5960 5959 5957 5956 5954 5952 5951 5949 5947 5946 5944 5942 5940 5938 5936
5958 5959 5960 5961 5962 5963 5964 5964 5965 5966 5967 5968 5969 5969 5970 5970 5970 5970 5970 5970 5970 5970 5970 5969 5969 5969 5970 5970 5970 5970 5970 5970 5970 5969 5970 5970 5970 5971 5971 5971 5971 5971 5972 5972 5972 5972 5973 5973 5973 5973 5973 5973 5973 5973 5973 5973 5973 5972 5971 5971 5970 5969 5968 5967 5966 5965 5964 5963 5961 5960 5959 5957 5956 5954 5952 5951 5949 5947 5945 5943 5941 5939 5937 5935 5933
5957 5958 5959 5960 5961 5962 5963 5964 5965 5966 5967 5967 5968 5969 5969 5969 5970 5970 5970 5970 5970 5970 5970 5970 5969 5970 5970 5970 5970 5970 5970 5970 5970 5969 5970 5970 5970 5971 5971 5971 5971 5972 5972 5972 5972 5973 5973 5973 5973 5974 5974 5974 5974 5973 5973 5973 5972 5971 5971 5970 5969 5968 5967 5966 5965 5964 5963 5961 5960 5958 5957 5955 5953 5952 5950 5948 5946 5945 5943 5941 5939 5937 5935 5932 5930
5956 5957 5958 5959 5960 5961 5962 5963 5964 5965 5966 5967 5967 5968 5968 5969 5969 5969 5969 5970 5970 5970 5970 5970 5970 5970 5970 5970 5969 5970 5970 5970 5970 5969 5970 5970 5970 5971 5971 5971 5971 5971 5972 5972 5973 5973 5973 5973 5974 5974 5974 5974 5973 5973 5973 5972 5972 5971 5970 5969 5968 5967 5966 5965 5964 5963 5962 5960 5958 5956 5954 5952 5951 5949 5947 5945 5944 5942 5940 5938 5936 5934 5932 5930 5928
5954 5955 5957 5958 5959 5960 5961 5962 5963 5964 5965 5965 5966 5967 5967 5968 5968 5968 5969 5969 5969 5969 5969 5970 5970 5969 5970 5970 5969 5969 5969 5970 5970 5969 5969 5970 5970 5970 5971 5971 5971 5971 5972 5972 5973 5973 5973 5974 5974 5974 5973 5973 5973 5972 5972 5972 5971 5970 5969 5968 5967 5966 5965 5964 5963 5962 5960 5958 5956 5954 5953 5951 5949 5947 5945 5943 5941 5939 5937 5935 5933 5931 5929 5927 5925
5953 5954 5955 5956 5958 5959 5960 5961 5962 5963 5964 5964 5965 5965 5966 5966 5967 5967 5968 5968 5968 5969 5969 5969 5969 5969 5969 5970 5969 5969 5969 5969 5969 5969 5969 5970 5970 5970 5971 5971 5971 5972 5972 5973 5973 5973 5973 5973 5973 5973 5973 5972 5972 5972 5971 5971 5970 5969 5968 5967 5966 5965 5964 5962 5961 5960 5958 5956 5954 5952 5951 5949 5947 5945 5942 5940 5937 5935 5934 5932 5930 5928 5926 5924 5922
5951 5952 5954 5955 5956 5957 5958 5959 5960 5961 5962 5963 5964 5964 5965 5965 5966 5966 5966 5967 5967 5967 5968 5968 5968 5968 5968 5969 5969 5969 5969 5969 5969 5969 5969 5970 5970 5970 5971 5971 5971 5972 5972 5972 5973 5973 5973 5973 5973 5973 5972 5972 5971 5971 5970 5970 5969 5968 5967 5966 5965 5964 5962 5960 5958 5957 5956 5955 5953 5951 5949 5947 5944 5942 5939 5936 5934 5932 5930 5928 5926 5924 5922 5921 5919
5949 5950 5952 5953 5955 5956 5957 5958 5959 5960 5961 5962 5963 5963 5964 5964 5965 5965 5965 5965 5966 5966 5966 5967 5967 5967 5967 5968 5968 5968 5968 5969 5969 5969 5969 5969 5970 5970 5971 5971 5971 5971 5972 5972 5972 5973 5973 5972 5972 5972 5971 5971 5970 5970 5969 5968 5968 5967 5966 5965 5964 5963 5961 5958 5956 5955 5954 5952 5950 5948 5946 5944 5942 5939 5937 5933 5929 5927 5925 5923 5920 5919 5919 5917 5913
5947 5949 5950 5952 5953 5954 5955 5957 5958 5959 5960 5961 5961 5962 5963 5963 5963 5964 5964 5964 5964 5965 5965 5965 5966 5966 5966 5967 5967 5968 5968 5968 5968 5968 5969 5969 5969 5970 5970 5971 5971 5971 5971 5972 5972 5972 5972 5971 5971 5971 5970 5970 5969 5969 5968 5967 5966 5965 5964 5964 5964 5961 5958 5956 5954 5953 5951 5948 5946 5943 5941 5940 5938 5937 5934 5931 5927 5923 5920 5917 5914 5913 5914 5912 5907
5945 5947 5948 5950 5951 5952 5954 5955 5956 5957 5958 5959 5960 5961 5961 5962 5962 5962 5963 5963 5963 5963 5964 5964 5964 5965 5965 5966 5966 5967 5967 5967 5967 5968 5968 5968 5969 5969 5970 5970 5970 5971 5971 5971 5971 5971 5971 5971 5970 5970 5969 5969 5968 5967 5967 5965 5964 5963 5963 5963 5962 5960 5957 5955 5952 5949 5947 5946 5944 5941 5939 5938 5937 5934 5932 5929 5926 5922 5918 5913 5908 5906 5907 5905 5900
5944 5945 5946 5948 5949 5951 5952 5954 5955 5956 5957 5958 5959 5959 5960 5960 5961 5961 5961 5962 5962 5962 5962 5963 5963 5963 5964 5964 5965 5965 5966 5966 5966 5966 5967 5967 5968 5968 5969 5969 5969 5970 5970 5970 5970 5970 5970 5970 5970 5969 5969 5968 5967 5967 5966 5964 5963 5962 5961 5961 5960 5958 5957 5954 5951 5948 5946 5945 5944 5942 5939 5935 5934 5932 5929 5925 5922 5919 5917 5913 5907 5903 5901 5898 5894
5941 5943 5945 5946 5948 5949 5951 5952 5953 5954 5955 5956 5957 5957 5958 5958 5959 5960 5960 5960 5960 5960 5961 5961 5961 5962 5962 5963 5963 5964 5964 5964 5965 5965 5966 5966 5967 5967 5967 5968 5968 5968 5969 5969 5969 5969 5969 5969 5969 5968 5967 5967 5966 5966 5965 5963 5962 5961 5960 5959 5958 5956 5955 5953 5951 5947 5944 5942 5942 5942 5939 5934 5931 5930 5928 5923 5917 5914 5912 5909 5905 5902 5898 5893 5890
5939 5941 5943 5944 5946 5947 5948 5950 5951 5952 5953 5954 5955 5955 5956 5957 5957 5958 5958 5958 5958 5959 5959 5959 5960 5960 5960 5961 5961 5962 5962 5963 5963 5963 5964 5965 5965 5966 5966 5967 5967 5967 5968 5968 5968 5968 5968 5967 5967 5966 5965 5965 5964 5964 5963 5962 5961 5960 5958 5956 5955 5954 5953 5951 5950 5946 5942 5939 5939 5939 5938 5933 5927 5926 5926 5921 5915 5911 5907 5902 5899 5897 5894 5890 5886
5937 5939 5941 5942 5944 5945 5946 5948 5949 5950 5951 5952 5952 5953 5954 5955 5955 5956 5956 5956 5957 5957 5957 5957 5958 5958 5958 5959 5959 5960 5960 5961 5961 5962 5962 5963 5963 5964 5965 5965 5966 5966 5966 5966 5966 5966 5966 5966 5965 5964 5963 5963 5962 5961 5960 5960 5959 5958 5957 5955 5952 5950 5949 5948 5947 5944 5938 5934 5932 5933 5935 5931 5923 5921 5921 5917 5911 5908 5904 5898 5894 5891 5889 5886 5882
5934 5936 5938 5940 5941 5942 5944 5945 5947 5948 5949 5950 5950 5951 5952 5953 5953 5954 5954 5954 5955 5955 5955 5956 5956 5956 5957 5957 5957 5958 5958 5959 5959 5960 5960 5960 5961 5962 5963 5963 5964 5964 5964 5964 5964 5964 5963 5963 5963 5962 5961 5960 5959 5959 5958 5957 5957 5956 5956 5954 5951 5949 5947 5945 5944 5942 5937 5931 5926 5926 5929 5928 5921 5917 5916 5912 5907 5903 5899 5894 5890 5887 5885 5882 5878
5931 5934 5936 5937 5938 5940 5941 5943 5944 5945 5946 5947 5948 5949 5950 5951 5951 5952 5952 5953 5953 5954 5954 5954 5954 5955 5955 5955 5956 5956 5956 5957 5957 5958 5958 5958 5959 5960 5960 5961 5961 5962 5962 5962 5962 5962 5961 5961 5961 5960 5959 5958 5957 5956 5955 5954 5954 5953 5953 5952 5950 5947 5945 5943 5941 5940 5937 5931 5925 5923 5924 5924 5918 5914 5912 5908 5904 5901 5896 5891 5887 5885 5882 5879 5875
5929 5931 5932 5934 5936 5937 5939 5940 5941 5942 5943 5945 5946 5947 5948 5948 5949 5950 5950 5951 5951 5952 5952 5952 5953 5953 5953 5954 5954 5954 5955 5955 5955 5956 5956 5956 5956 5957 5958 5959 5959 5959 5960 5960 5959 5959 5959 5959 5958 5957 5956 5955 5954 5953 5952 5951 5950 5949 5949 5948 5946 5944 5942 5940 5938 5936 5935 5931 5925 5921 5921 5920 5915 5910 5907 5903 5900 5897 5892 5886 5883 5880 5878 5875 5872
5926 5928 5930 5931 5933 5935 5936 5937 5939 5940 5941 5942 5943 5945 5945 5946 5947 5948 5948 5949 5949 5949 5950 5950 5950 5951 5951 5952 5952 5953 5953 5953 5954 5954 5954 5954 5954 5955 5955 5956 5957 5957 5957 5957 5957 5957 5956 5956 5955 5954 5953 5952 5951 5950 5949 5948 5946 5945 5944 5943 5941 5939 5937 5936 5934 5932 5930 5928 5924 5919 5918 5916 5912 5908 5905 5901 5897 5893 5889 5884 5880 5876 5874 5871 5868
5924 5926 5927 5929 5930 5932 5933 5935 5937 5938 5938 5939 5941 5942 5943 5944 5945 5945 5946 5947 5947 5947 5947 5948 5948 5949 5949 5950 5950 5951 5951 5951 5951 5952 5952 5952 5952 5952 5953 5953 5954 5955 5955 5955 5954 5954 5954 5953 5952 5951 5950 5949 5948 5947 5946 5944 5942 5941 5939 5938 5936 5934 5932 5931 5929 5927 5925 5922 5919 5915 5913 5911 5908 5904 5902 5898 5893 5889 5885 5881 5877 5873 5870 5868 5864
5921 5923 5924 5926 5928 5929 5931 5933 5934 5935 5935 5936 5938 5939 5940 5941 5942 5943 5944 5944 5945 5946 5945 5945 5946 5946 5947 5947 5948 5948 5949 5949 5949 5949 5949 5950 5950 5950 5950 5950 5951 5952 5952 5951 5951 5951 5951 5950 5949 5948 5947 5946 5945 5944 5942 5940 5939 5937 5935 5934 5932 5930 5928 5926 5924 5923 5921 5918 5913 5910 5909 5906 5902 5898 5895 5892 5890 5886 5880 5876 5872 5869 5865 5863 5859
5918 5920 5922 5924 5925 5927 5929 5930 5931 5932 5933 5934 5935 5937 5937 5938 5939 5940 5941 5942 5943 5943 5943 5943 5944 5944 5944 5944 5945 5946 5946 5946 5946 5946 5946 5947 5947 5947 5947 5947 5948 5949 5948 5948 5948 5948 5948 5947 5947 5946 5944 5943 5942 5941 5939 5937 5935 5934 5932 5931 5928 5926 5925 5923 5920 5919 5919 5915 5910 5906 5904 5901 5897 5893 5887 5884 5884 5883 5878 5873 5868 5864 5861 5857 5853